| time (UTC) | temp C | wind direction | speed KPH | gust KPH | rain 1hr cm | rain 24hr cm | rain mn cm | humidity % | barometer mb |
| 20260502164021 | 15 | 360 | 24.1 | 33.8 | 0.00 | 0.00 | 0.00 | 24 | 1020.4 |
| 20260502163520 | 15 | 360 | 22.5 | 35.4 | 0.00 | 0.00 | 0.00 | 25 | 1020.4 |
| 20260502163041 | 15 | 360 | 24.1 | 35.4 | 0.00 | 0.00 | 0.00 | 26 | 1020.5 |
| 20260502162524 | 15 | 360 | 20.9 | 29.0 | 0.00 | 0.00 | 0.00 | 26 | 1020.5 |
| 20260502162021 | 15 | 360 | 19.3 | 32.2 | 0.00 | 0.00 | 0.00 | 27 | 1020.6 |
| 20260502161538 | 15 | 360 | 20.9 | 32.2 | 0.00 | 0.00 | 0.00 | 26 | 1020.7 |
| 20260502161021 | 15 | 360 | 22.5 | 35.4 | 0.00 | 0.00 | 0.00 | 26 | 1020.6 |
| 20260502160522 | 14 | 360 | 22.5 | 35.4 | 0.00 | 0.00 | 0.00 | 27 | 1020.7 |
| 20260502152020 | 12 | 360 | 19.3 | 27.4 | 0.00 | 0.00 | 0.00 | 30 | 1020.8 |
| 20260502151540 | 12 | 360 | 20.9 | 29.0 | 0.00 | 0.00 | 0.00 | 30 | 1020.8 |
| 20260502151024 | 12 | 360 | 17.7 | 29.0 | 0.00 | 0.00 | 0.00 | 31 | 1020.9 |
| 20260502150518 | 12 | 360 | 20.9 | 29.0 | 0.00 | 0.00 | 0.00 | 31 | 1021.0 |
| 20260502130521 | 7 | 360 | 17.7 | 25.7 | 0.00 | 0.00 | 0.00 | 42 | 1021.0 |
| 20260502123520 | 6 | 360 | 11.3 | 25.7 | 0.00 | 0.00 | 0.00 | 42 | 1020.8 |
| 20260502123039 | 6 | 360 | 16.1 | 25.7 | 0.00 | 0.00 | 0.00 | 42 | 1020.7 |
| 20260502122520 | 6 | 360 | 14.5 | 24.1 | 0.00 | 0.00 | 0.00 | 42 | 1020.7 |
| 20260502122020 | 6 | 360 | 12.9 | 24.1 | 0.00 | 0.00 | 0.00 | 42 | 1020.8 |
| 20260502121545 | 7 | 360 | 16.1 | 22.5 | 0.00 | 0.00 | 0.00 | 41 | 1020.7 |
| 20260502121020 | 7 | 360 | 14.5 | 27.4 | 0.00 | 0.00 | 0.00 | 41 | 1020.8 |
| 20260502120521 | 7 | 360 | 16.1 | 27.4 | 0.00 | 0.00 | 0.00 | 41 | 1020.8 |
| 20260502115524 | 6 | 227 | 12.9 | 20.9 | 0.00 | 0.00 | 0.00 | 41 | 1020.8 |
| 20260502115021 | 6 | 234 | 14.5 | 19.3 | 0.00 | 0.00 | 0.00 | 42 | 1020.8 |
| 20260502114541 | 6 | 259 | 11.3 | 24.1 | 0.00 | 0.00 | 0.00 | 42 | 1020.8 |
| 20260502114021 | 6 | 246 | 11.3 | 24.1 | 0.00 | 0.00 | 0.00 | 43 | 1020.7 |
| 20260502113521 | 7 | 360 | 17.7 | 24.1 | 0.00 | 0.00 | 0.00 | 41 | 1020.6 |
| 20260502113039 | 7 | 360 | 17.7 | 24.1 | 0.00 | 0.00 | 0.00 | 41 | 1020.6 |
| 20260502112520 | 7 | 360 | 14.5 | 25.7 | 0.00 | 0.00 | 0.00 | 41 | 1020.6 |
| 20260502112021 | 7 | 360 | 14.5 | 25.7 | 0.00 | 0.00 | 0.00 | 41 | 1020.7 |
| 20260502111539 | 7 | 360 | 12.9 | 25.7 | 0.00 | 0.00 | 0.00 | 41 | 1020.7 |
| 20260502111019 | 6 | 360 | 12.9 | 20.9 | 0.00 | 0.00 | 0.00 | 42 | 1020.7 |
| 20260502110521 | 6 | 257 | 12.9 | 19.3 | 0.00 | 0.00 | 0.00 | 42 | 1020.6 |
| 20260502110038 | 6 | 253 | 11.3 | 20.9 | 0.00 | 0.00 | 0.00 | 43 | 1020.7 |
| 20260502105525 | 6 | 252 | 12.9 | 27.4 | 0.00 | 0.00 | 0.00 | 43 | 1020.7 |
| 20260502105026 | 6 | 250 | 14.5 | 27.4 | 0.00 | 0.00 | 0.00 | 43 | 1020.7 |
| 20260502104547 | 6 | 226 | 12.9 | 24.1 | 0.00 | 0.00 | 0.00 | 42 | 1020.8 |
| 20260502104021 | 6 | 222 | 12.9 | 24.1 | 0.00 | 0.00 | 0.00 | 43 | 1020.7 |
| 20260502103523 | 6 | 232 | 14.5 | 24.1 | 0.00 | 0.00 | 0.00 | 42 | 1020.8 |
| 20260502103035 | 6 | 250 | 11.3 | 22.5 | 0.00 | 0.00 | 0.00 | 42 | 1020.8 |
| 20260502102521 | 6 | 360 | 14.5 | 22.5 | 0.00 | 0.00 | 0.00 | 42 | 1020.7 |
| 20260502102019 | 6 | 360 | 14.5 | 24.1 | 0.00 | 0.00 | 0.00 | 43 | 1020.7 |
| 20260502101539 | 6 | 360 | 16.1 | 25.7 | 0.00 | 0.00 | 0.00 | 43 | 1020.7 |
| 20260502101023 | 6 | 360 | 17.7 | 29.0 | 0.00 | 0.00 | 0.00 | 43 | 1020.7 |
| 20260502100520 | 6 | 360 | 16.1 | 29.0 | 0.00 | 0.00 | 0.00 | 44 | 1020.6 |
| 20260502091533 | 6 | 200 | 9.7 | 22.5 | 0.00 | 0.00 | 0.00 | 43 | 1020.9 |
| 20260502091020 | 6 | 230 | 14.5 | 25.7 | 0.00 | 0.00 | 0.00 | 43 | 1020.9 |
| 20260502090520 | 6 | 360 | 14.5 | 25.7 | 0.00 | 0.00 | 0.00 | 43 | 1020.9 |
| 20260502071020 | 7 | 360 | 11.3 | 22.5 | 0.00 | 0.00 | 0.00 | 41 | 1021.1 |
| 20260502070522 | 7 | 360 | 14.5 | 24.1 | 0.00 | 0.00 | 0.00 | 41 | 1021.1 |
| 20260502070040 | 7 | 360 | 14.5 | 25.7 | 0.00 | 0.00 | 0.00 | 40 | 1021.0 |
| 20260502065521 | 7 | 360 | 17.7 | 25.7 | 0.00 | 0.00 | 0.00 | 40 | 1021.1 |
| 20260502065020 | 7 | 360 | 12.9 | 20.9 | 0.00 | 0.00 | 0.00 | 39 | 1021.1 |
| 20260502064540 | 7 | 360 | 9.7 | 22.5 | 0.00 | 0.00 | 0.00 | 39 | 1021.1 |
| 20260502064020 | 7 | 360 | 12.9 | 22.5 | 0.00 | 0.00 | 0.00 | 40 | 1021.1 |
| 20260502063521 | 7 | 360 | 11.3 | 22.5 | 0.00 | 0.00 | 0.00 | 41 | 1021.1 |
| 20260502063040 | 7 | 360 | 14.5 | 22.5 | 0.00 | 0.00 | 0.00 | 41 | 1021.2 |
| 20260502062524 | 7 | 360 | 8.0 | 19.3 | 0.00 | 0.00 | 0.00 | 41 | 1021.2 |
| 20260502062024 | 7 | 360 | 6.4 | 19.3 | 0.00 | 0.00 | 0.00 | 41 | 1021.1 |
| 20260502061540 | 7 | 360 | 3.2 | 6.4 | 0.00 | 0.00 | 0.00 | 41 | 1021.1 |
| 20260502061020 | 7 | 360 | 1.6 | 6.4 | 0.00 | 0.00 | 0.00 | 41 | 1021.1 |
| 20260502060520 | 7 | 0 | 0.0 | 8.0 | 0.00 | 0.00 | 0.00 | 42 | 1021.0 |
| 20260502060042 | 7 | 360 | 1.6 | 8.0 | 0.00 | 0.00 | 0.00 | 43 | 1021.0 |
| 20260502055523 | 7 | 360 | 3.2 | 8.0 | 0.00 | 0.00 | 0.00 | 41 | 1021.0 |
| 20260502055021 | 7 | 0 | 0.0 | 4.8 | 0.00 | 0.00 | 0.00 | 42 | 1021.2 |
| 20260502054540 | 7 | 0 | 1.6 | 8.0 | 0.00 | 0.00 | 0.00 | 42 | 1021.0 |
| 20260502054021 | 7 | 360 | 0.0 | 9.7 | 0.00 | 0.00 | 0.00 | 41 | 1021.2 |
| 20260502053520 | 7 | 360 | 1.6 | 9.7 | 0.00 | 0.00 | 0.00 | 42 | 1021.1 |
| 20260502053039 | 6 | 360 | 3.2 | 8.0 | 0.00 | 0.00 | 0.00 | 43 | 1021.2 |
| 20260502052520 | 6 | 360 | 1.6 | 4.8 | 0.00 | 0.00 | 0.00 | 44 | 1021.2 |
| 20260502052020 | 6 | 77 | 1.6 | 4.8 | 0.00 | 0.00 | 0.00 | 45 | 1021.1 |
| 20260502051549 | 6 | 77 | 0.0 | 6.4 | 0.00 | 0.00 | 0.00 | 45 | 1021.2 |
| 20260502051020 | 6 | 77 | 3.2 | 6.4 | 0.00 | 0.00 | 0.00 | 45 | 1021.2 |
| 20260502050521 | 7 | 360 | 3.2 | 6.4 | 0.00 | 0.00 | 0.00 | 44 | 1021.1 |
| 20260502050042 | 7 | 360 | 1.6 | 4.8 | 0.00 | 0.00 | 0.00 | 41 | 1021.2 |
| 20260502045521 | 8 | 360 | 0.0 | 4.8 | 0.00 | 0.00 | 0.00 | 40 | 1021.2 |
| 20260502045021 | 8 | 0 | 1.6 | 4.8 | 0.00 | 0.00 | 0.00 | 39 | 1021.2 |
| 20260502044539 | 8 | 360 | 0.0 | 4.8 | 0.00 | 0.00 | 0.00 | 40 | 1021.2 |
| 20260502044020 | 8 | 0 | 1.6 | 4.8 | 0.00 | 0.00 | 0.00 | 40 | 1021.1 |
| 20260502043520 | 7 | 360 | 1.6 | 4.8 | 0.00 | 0.00 | 0.00 | 41 | 1021.2 |
| 20260502043043 | 7 | 0 | 0.0 | 0.0 | 0.00 | 0.00 | 0.00 | 41 | 1021.2 |
| 20260502042521 | 7 | 0 | 0.0 | 3.2 | 0.00 | 0.00 | 0.00 | 41 | 1021.3 |
| 20260502042020 | 8 | 0 | 0.0 | 3.2 | 0.00 | 0.00 | 0.00 | 42 | 1021.3 |
| 20260502041541 | 8 | 148 | 0.0 | 3.2 | 0.00 | 0.00 | 0.00 | 40 | 1021.3 |
| 20260502041021 | 8 | 0 | 0.0 | 3.2 | 0.00 | 0.00 | 0.00 | 40 | 1021.3 |
| 20260502040521 | 8 | 0 | 0.0 | 1.6 | 0.00 | 0.00 | 0.00 | 39 | 1021.2 |
| 20260502040036 | 9 | 0 | 0.0 | 1.6 | 0.00 | 0.00 | 0.00 | 38 | 1021.2 |
| 20260502035520 | 9 | 0 | 0.0 | 4.8 | 0.00 | 0.00 | 0.00 | 38 | 1021.1 |
| 20260502035021 | 9 | 0 | 0.0 | 4.8 | 0.00 | 0.00 | 0.00 | 37 | 1021.1 |
| 20260502034546 | 9 | 360 | 0.0 | 4.8 | 0.00 | 0.00 | 0.00 | 38 | 1021.1 |
| 20260502034020 | 9 | 0 | 1.6 | 9.7 | 0.00 | 0.00 | 0.00 | 37 | 1021.2 |
| 20260502033520 | 9 | 360 | 3.2 | 9.7 | 0.00 | 0.00 | 0.00 | 38 | 1021.1 |
| 20260502033049 | 10 | 360 | 4.8 | 12.9 | 0.00 | 0.00 | 0.00 | 37 | 1021.0 |
| 20260502032520 | 10 | 360 | 4.8 | 16.1 | 0.00 | 0.00 | 0.00 | 37 | 1020.8 |
| 20260502032020 | 10 | 360 | 8.0 | 16.1 | 0.00 | 0.00 | 0.00 | 37 | 1020.8 |
| 20260502031556 | 10 | 360 | 9.7 | 16.1 | 0.00 | 0.00 | 0.00 | 37 | 1020.8 |
| 20260502031020 | 10 | 360 | 8.0 | 14.5 | 0.00 | 0.00 | 0.00 | 37 | 1020.7 |
| 20260502030521 | 10 | 360 | 9.7 | 14.5 | 0.00 | 0.00 | 0.00 | 36 | 1020.7 |
| 20260502030037 | 10 | 360 | 8.0 | 14.5 | 0.00 | 0.00 | 0.00 | 36 | 1020.5 |
| 20260502025520 | 10 | 360 | 9.7 | 14.5 | 0.00 | 0.00 | 0.00 | 36 | 1020.4 |
| 20260502025020 | 10 | 360 | 9.7 | 14.5 | 0.00 | 0.00 | 0.00 | 35 | 1020.4 |
| 20260502024535 | 10 | 360 | 11.3 | 14.5 | 0.00 | 0.00 | 0.00 | 36 | 1020.2 |
| 20260502024021 | 10 | 360 | 9.7 | 16.1 | 0.00 | 0.00 | 0.00 | 36 | 1020.2 |
| 20260502023523 | 10 | 360 | 9.7 | 16.1 | 0.00 | 0.00 | 0.00 | 37 | 1020.0 |
| 20260502023039 | 11 | 360 | 11.3 | 16.1 | 0.00 | 0.00 | 0.00 | 36 | 1020.0 |
| 20260502022519 | 11 | 360 | 9.7 | 17.7 | 0.00 | 0.00 | 0.00 | 35 | 1020.0 |
| 20260502022020 | 11 | 360 | 11.3 | 17.7 | 0.00 | 0.00 | 0.00 | 34 | 1020.1 |
| 20260502021540 | 11 | 113 | 8.0 | 12.9 | 0.00 | 0.00 | 0.00 | 35 | 1020.0 |
| 20260502021021 | 12 | 113 | 4.8 | 11.3 | 0.00 | 0.00 | 0.00 | 34 | 1020.0 |
| 20260502020520 | 12 | 113 | 3.2 | 12.9 | 0.00 | 0.00 | 0.00 | 32 | 1020.0 |
| 20260502020041 | 13 | 109 | 4.8 | 12.9 | 0.00 | 0.00 | 0.00 | 31 | 1020.0 |
| 20260502015521 | 13 | 102 | 6.4 | 12.9 | 0.00 | 0.00 | 0.00 | 30 | 1020.0 |
| 20260502015021 | 14 | 104 | 8.0 | 17.7 | 0.00 | 0.00 | 0.00 | 29 | 1019.8 |
| 20260502014539 | 14 | 88 | 6.4 | 19.3 | 0.00 | 0.00 | 0.00 | 29 | 1019.8 |
| 20260502014020 | 15 | 71 | 12.9 | 19.3 | 0.00 | 0.00 | 0.00 | 28 | 1019.7 |
| 20260502013521 | 15 | 69 | 16.1 | 19.3 | 0.00 | 0.00 | 0.00 | 28 | 1019.6 |
| 20260502013040 | 15 | 58 | 12.9 | 22.5 | 0.00 | 0.00 | 0.00 | 27 | 1019.6 |
| 20260502012520 | 15 | 71 | 11.3 | 22.5 | 0.00 | 0.00 | 0.00 | 26 | 1019.6 |
| 20260502012021 | 15 | 52 | 16.1 | 22.5 | 0.00 | 0.00 | 0.00 | 25 | 1019.7 |
| 20260502011542 | 15 | 53 | 14.5 | 22.5 | 0.00 | 0.00 | 0.00 | 25 | 1019.7 |
| 20260502011020 | 15 | 39 | 14.5 | 24.1 | 0.00 | 0.00 | 0.00 | 25 | 1019.6 |
| 20260502010519 | 16 | 49 | 14.5 | 24.1 | 0.00 | 0.00 | 0.00 | 24 | 1019.5 |
| 20260502010033 | 16 | 56 | 14.5 | 20.9 | 0.00 | 0.00 | 0.00 | 24 | 1019.5 |
| 20260502005521 | 16 | 42 | 11.3 | 20.9 | 0.00 | 0.00 | 0.00 | 23 | 1019.5 |
| 20260502005021 | 16 | 40 | 14.5 | 20.9 | 0.00 | 0.00 | 0.00 | 24 | 1019.4 |
| 20260502004539 | 16 | 72 | 8.0 | 16.1 | 0.00 | 0.00 | 0.00 | 22 | 1019.5 |
| 20260502004021 | 16 | 44 | 3.2 | 9.7 | 0.00 | 0.00 | 0.00 | 21 | 1019.5 |
| 20260502003520 | 16 | 38 | 6.4 | 9.7 | 0.00 | 0.00 | 0.00 | 21 | 1019.5 |
| 20260502003039 | 16 | 11 | 1.6 | 17.7 | 0.00 | 0.00 | 0.00 | 21 | 1019.5 |
| 20260502002520 | 16 | 29 | 8.0 | 20.9 | 0.00 | 0.00 | 0.00 | 22 | 1019.5 |
| 20260502002025 | 16 | 68 | 8.0 | 20.9 | 0.00 | 0.00 | 0.00 | 22 | 1019.5 |
| 20260502001540 | 16 | 59 | 14.5 | 20.9 | 0.00 | 0.00 | 0.00 | 21 | 1019.5 |
| 20260502001021 | 17 | 360 | 12.9 | 20.9 | 0.00 | 0.00 | 0.00 | 22 | 1019.5 |
| 20260502000521 | 17 | 26 | 3.2 | 12.9 | 0.00 | 0.00 | 0.00 | 21 | 1019.6 |
| 20260502000038 | 17 | 360 | 3.2 | 16.1 | 0.00 | 0.00 | 0.00 | 21 | 1019.6 |
| 20260501235518 | 17 | 360 | 11.3 | 17.7 | 0.00 | 0.00 | 0.00 | 20 | 1019.6 |
| 20260501235023 | 17 | 360 | 8.0 | 19.3 | 0.00 | 0.00 | 0.00 | 20 | 1019.5 |
| 20260501234547 | 17 | 360 | 3.2 | 22.5 | 0.00 | 0.00 | 0.00 | 20 | 1019.7 |
| 20260501234018 | 17 | 275 | 14.5 | 22.5 | 0.00 | 0.00 | 0.00 | 20 | 1019.6 |
| 20260501233527 | 17 | 360 | 14.5 | 20.9 | 0.00 | 0.00 | 0.00 | 20 | 1019.5 |
| 20260501233039 | 17 | 360 | 1.6 | 19.3 | 0.00 | 0.00 | 0.00 | 22 | 1019.5 |
| 20260501232521 | 17 | 360 | 8.0 | 19.3 | 0.00 | 0.00 | 0.00 | 21 | 1019.6 |
| 20260501232019 | 17 | 360 | 4.8 | 20.9 | 0.00 | 0.00 | 0.00 | 21 | 1019.5 |
| 20260501231549 | 17 | 360 | 12.9 | 22.5 | 0.00 | 0.00 | 0.00 | 20 | 1019.6 |
| 20260501231018 | 17 | 360 | 17.7 | 22.5 | 0.00 | 0.00 | 0.00 | 20 | 1019.7 |
| 20260501230520 | 17 | 360 | 9.7 | 16.1 | 0.00 | 0.00 | 0.00 | 21 | 1019.6 |
| 20260501230039 | 17 | 360 | 6.4 | 24.1 | 0.00 | 0.00 | 0.00 | 22 | 1019.6 |
| 20260501225522 | 17 | 360 | 8.0 | 24.1 | 0.00 | 0.00 | 0.00 | 21 | 1019.7 |
| 20260501225021 | 17 | 360 | 8.0 | 24.1 | 0.00 | 0.00 | 0.00 | 21 | 1019.7 |
| 20260501224539 | 17 | 360 | 9.7 | 22.5 | 0.00 | 0.00 | 0.00 | 21 | 1019.8 |
| 20260501224018 | 16 | 285 | 1.6 | 19.3 | 0.00 | 0.00 | 0.00 | 20 | 1019.7 |
| 20260501223521 | 17 | 360 | 12.9 | 19.3 | 0.00 | 0.00 | 0.00 | 21 | 1019.8 |
| 20260501223033 | 17 | 360 | 1.6 | 9.7 | 0.00 | 0.00 | 0.00 | 21 | 1019.8 |
| 20260501222519 | 16 | 360 | 1.6 | 24.1 | 0.00 | 0.00 | 0.00 | 21 | 1019.8 |
| 20260501222020 | 16 | 360 | 8.0 | 24.1 | 0.00 | 0.00 | 0.00 | 21 | 1020.0 |
| 20260501221534 | 16 | 360 | 16.1 | 24.1 | 0.00 | 0.00 | 0.00 | 21 | 1020.0 |
| 20260501221020 | 16 | 360 | 3.2 | 20.9 | 0.00 | 0.00 | 0.00 | 21 | 1020.0 |
| 20260501220521 | 16 | 360 | 6.4 | 16.1 | 0.00 | 0.00 | 0.00 | 22 | 1020.0 |
| 20260501220044 | 16 | 360 | 1.6 | 8.0 | 0.00 | 0.00 | 0.00 | 21 | 1020.1 |
| 20260501215519 | 16 | 360 | 1.6 | 8.0 | 0.00 | 0.00 | 0.00 | 21 | 1020.2 |
| 20260501215019 | 16 | 360 | 3.2 | 9.7 | 0.00 | 0.00 | 0.00 | 20 | 1020.3 |
| 20260501214551 | 16 | 360 | 3.2 | 12.9 | 0.00 | 0.00 | 0.00 | 21 | 1020.4 |
| 20260501214021 | 16 | 360 | 3.2 | 20.9 | 0.00 | 0.00 | 0.00 | 21 | 1020.4 |
| 20260501213519 | 16 | 360 | 11.3 | 20.9 | 0.00 | 0.00 | 0.00 | 22 | 1020.5 |
| 20260501213045 | 16 | 360 | 6.4 | 20.9 | 0.00 | 0.00 | 0.00 | 22 | 1020.5 |
| 20260501212521 | 16 | 360 | 4.8 | 19.3 | 0.00 | 0.00 | 0.00 | 22 | 1020.5 |
| 20260501212019 | 16 | 360 | 6.4 | 19.3 | 0.00 | 0.00 | 0.00 | 23 | 1020.5 |
| 20260501211539 | 16 | 360 | 4.8 | 19.3 | 0.00 | 0.00 | 0.00 | 22 | 1020.6 |
| 20260501211021 | 16 | 360 | 1.6 | 16.1 | 0.00 | 0.00 | 0.00 | 24 | 1020.6 |
| 20260501210518 | 16 | 360 | 8.0 | 16.1 | 0.00 | 0.00 | 0.00 | 24 | 1020.7 |
| 20260501210040 | 16 | 360 | 8.0 | 22.5 | 0.00 | 0.00 | 0.00 | 22 | 1020.6 |
| 20260501205519 | 15 | 360 | 11.3 | 22.5 | 0.00 | 0.00 | 0.00 | 23 | 1020.6 |
| 20260501205019 | 15 | 360 | 8.0 | 27.4 | 0.00 | 0.00 | 0.00 | 23 | 1020.6 |
| 20260501204543 | 15 | 360 | 14.5 | 27.4 | 0.00 | 0.00 | 0.00 | 23 | 1020.6 |
| 20260501204021 | 15 | 360 | 9.7 | 17.7 | 0.00 | 0.00 | 0.00 | 22 | 1020.6 |
| 20260501203520 | 15 | 360 | 6.4 | 17.7 | 0.00 | 0.00 | 0.00 | 23 | 1020.6 |
| 20260501203039 | 15 | 360 | 3.2 | 17.7 | 0.00 | 0.00 | 0.00 | 23 | 1020.6 |
| 20260501202520 | 15 | 360 | 8.0 | 22.5 | 0.00 | 0.00 | 0.00 | 23 | 1020.6 |
| 20260501202020 | 15 | 360 | 6.4 | 22.5 | 0.00 | 0.00 | 0.00 | 23 | 1020.6 |
| 20260501201545 | 15 | 360 | 12.9 | 22.5 | 0.00 | 0.00 | 0.00 | 23 | 1020.7 |
| 20260501201022 | 15 | 360 | 4.8 | 12.9 | 0.00 | 0.00 | 0.00 | 22 | 1020.8 |
| 20260501200523 | 15 | 360 | 3.2 | 14.5 | 0.00 | 0.00 | 0.00 | 22 | 1020.7 |
| 20260501200035 | 15 | 360 | 4.8 | 14.5 | 0.00 | 0.00 | 0.00 | 22 | 1020.8 |
| 20260501195524 | 15 | 360 | 8.0 | 14.5 | 0.00 | 0.00 | 0.00 | 21 | 1020.8 |
| 20260501195021 | 15 | 360 | 6.4 | 24.1 | 0.00 | 0.00 | 0.00 | 23 | 1020.8 |
| 20260501194537 | 15 | 360 | 8.0 | 24.1 | 0.00 | 0.00 | 0.00 | 23 | 1020.8 |
| 20260501194020 | 15 | 360 | 1.6 | 19.3 | 0.00 | 0.00 | 0.00 | 23 | 1020.8 |
| 20260501193520 | 14 | 360 | 6.4 | 20.9 | 0.00 | 0.00 | 0.00 | 22 | 1020.8 |
| 20260501193043 | 14 | 360 | 12.9 | 20.9 | 0.00 | 0.00 | 0.00 | 21 | 1020.8 |
| 20260501192520 | 14 | 360 | 3.2 | 12.9 | 0.00 | 0.00 | 0.00 | 22 | 1020.8 |
| 20260501192021 | 14 | 360 | 4.8 | 20.9 | 0.00 | 0.00 | 0.00 | 22 | 1020.8 |
| 20260501191539 | 14 | 360 | 6.4 | 24.1 | 0.00 | 0.00 | 0.00 | 22 | 1020.8 |
| 20260501191021 | 14 | 360 | 16.1 | 24.1 | 0.00 | 0.00 | 0.00 | 22 | 1020.8 |
| 20260501190522 | 13 | 360 | 4.8 | 14.5 | 0.00 | 0.00 | 0.00 | 23 | 1020.8 |
| 20260501190039 | 13 | 360 | 4.8 | 14.5 | 0.00 | 0.00 | 0.00 | 21 | 1021.0 |
| 20260501185520 | 13 | 360 | 1.6 | 17.7 | 0.00 | 0.00 | 0.00 | 22 | 1021.0 |
| 20260501185020 | 13 | 360 | 8.0 | 19.3 | 0.00 | 0.00 | 0.00 | 22 | 1021.1 |
| 20260501184539 | 13 | 360 | 9.7 | 19.3 | 0.00 | 0.00 | 0.00 | 22 | 1021.1 |
| 20260501184020 | 13 | 360 | 11.3 | 19.3 | 0.00 | 0.00 | 0.00 | 23 | 1021.1 |
| 20260501183521 | 13 | 360 | 4.8 | 19.3 | 0.00 | 0.00 | 0.00 | 21 | 1021.1 |
| 20260501183039 | 13 | 360 | 3.2 | 22.5 | 0.00 | 0.00 | 0.00 | 22 | 1021.2 |
| 20260501182520 | 13 | 360 | 12.9 | 22.5 | 0.00 | 0.00 | 0.00 | 22 | 1021.3 |
| 20260501182021 | 12 | 360 | 1.6 | 20.9 | 0.00 | 0.00 | 0.00 | 23 | 1021.3 |
| 20260501181541 | 12 | 360 | 6.4 | 20.9 | 0.00 | 0.00 | 0.00 | 20 | 1021.4 |
| 20260501181020 | 12 | 360 | 8.0 | 19.3 | 0.00 | 0.00 | 0.00 | 22 | 1021.4 |
| 20260501180521 | 12 | 360 | 4.8 | 20.9 | 0.00 | 0.00 | 0.00 | 20 | 1021.4 |
| 20260501180042 | 12 | 360 | 14.5 | 22.5 | 0.00 | 0.00 | 0.00 | 22 | 1021.6 |
| 20260501175521 | 12 | 360 | 6.4 | 22.5 | 0.00 | 0.00 | 0.00 | 20 | 1021.6 |
| 20260501175021 | 12 | 360 | 16.1 | 22.5 | 0.00 | 0.00 | 0.00 | 21 | 1021.7 |
| 20260501174540 | 12 | 360 | 11.3 | 24.1 | 0.00 | 0.00 | 0.00 | 22 | 1021.8 |
| 20260501174020 | 12 | 360 | 11.3 | 24.1 | 0.00 | 0.00 | 0.00 | 23 | 1021.9 |
| 20260501173521 | 11 | 360 | 12.9 | 24.1 | 0.00 | 0.00 | 0.00 | 23 | 1022.0 |
| 20260501173037 | 11 | 360 | 6.4 | 19.3 | 0.00 | 0.00 | 0.00 | 23 | 1022.0 |
| 20260501172519 | 11 | 360 | 6.4 | 19.3 | 0.00 | 0.00 | 0.00 | 25 | 1022.0 |
| 20260501172021 | 11 | 360 | 8.0 | 20.9 | 0.00 | 0.00 | 0.00 | 26 | 1022.0 |